Weather History for KPUB - November, 2012

Change the Weather History Date:

Tuesday, November 13, 2012

  Actual Average Record
Temperature  
Mean Temperature 42 °F 40 °F  
Max Temperature 61 °F 58 °F 81 °F (1999)
Min Temperature 23 °F 24 °F -12 °F (1940)
Degree Days  
Heating Degree Days 23 25  
Month to date heating degree days 252 284  
Since 1 July heating degree days 742 794  
Cooling Degree Days 0 0  
Month to date cooling degree days 0 0  
Year to date cooling degree days 1322 897  
Moisture  
Dew Point 7 °F    
Average Humidity 31    
Maximum Humidity 50    
Minimum Humidity 12    
Precipitation  
Precipitation 0.00 in 0.02 in 0.35 in (1902)
Month to date precipitation T 0.22  
Year to date precipitation 4.70 11.94  
Snow  
Snow 0.00 in 0.10 in 2.00 in (1920)
Month to date snowfall T 1.6  
Since 1 July snowfall 1.6 3.2  
Since 1 September snowfall 1.6 3.2  
Snow Depth 0.00 in    
Sea Level Pressure  
Sea Level Pressure 30.23 in    
Wind  
Wind Speed 5 mph (NNE)    
Max Wind Speed 23 mph    
Max Gust Speed 28 mph    
Visibility 10 miles    
Events      
T = Trace of Precipitation, MM = Missing Value Source: NWS Daily Summary

Daily Weather History Graph

Daily Weather History Graph

Search for Another Location

Airport or City:

Trip Planner

Search our weather history database for the weather conditions in past years. The results will help you decide how hot, cold, wet, or windy it might be!

Date:

Astronomy

Nov. 13, 2012 Rise Set
Actual Time 6:37 AM MST 4:46 PM MST
Civil Twilight 6:09 AM MST 5:14 PM MST
Nautical Twilight 5:37 AM MST 5:46 PM MST
Astronomical Twilight 5:06 AM MST 6:17 PM MST
Moon 6:18 AM MST (11/13) 4:42 PM MST (11/13)
Length of Visible Light 11h 05m
Length of Day
10h 08m
Waning Crescent, 0% of the Moon is Illuminated
Nov 13
Waning Crescent
Nov 13
New
Nov 20
First Quarter
Nov 28
Full
Dec 6
Last Quarter

Hourly Weather History & Observations

Time (MST) Temp. Windchill Dew Point Humidity Pressure Visibility Wind Dir Wind Speed Gust Speed Precip Events Conditions
12:53 AM 27.0 °F 21.6 °F 1.9 °F 34% 30.24 in 10.0 mi South 4.6 mph - N/A   Clear
1:53 AM 25.0 °F 18.1 °F -0.0 °F 34% 30.21 in 10.0 mi North 5.8 mph - N/A   Clear
2:53 AM 26.1 °F 20.5 °F -2.9 °F 28% 30.19 in 10.0 mi NNW 4.6 mph - N/A   Clear
3:53 AM 26.1 °F 21.9 °F 1.9 °F 35% 30.18 in 10.0 mi WNW 3.5 mph - N/A   Clear
4:53 AM 27.0 °F - -0.0 °F 31% 30.19 in 10.0 mi Calm Calm - N/A   Clear
5:53 AM 26.1 °F 17.6 °F -0.0 °F 32% 30.23 in 10.0 mi NNE 8.1 mph - N/A   Clear
6:53 AM 28.0 °F - -0.0 °F 30% 30.22 in 10.0 mi Calm Calm - N/A   Clear
7:53 AM 33.1 °F 28.7 °F 1.0 °F 26% 30.24 in 10.0 mi West 4.6 mph - N/A   Clear
8:53 AM 39.0 °F 33.4 °F 3.9 °F 23% 30.23 in 10.0 mi West 8.1 mph - N/A   Clear
9:53 AM 48.0 °F - 5.0 °F 17% 30.21 in 10.0 mi WSW 3.5 mph - N/A   Clear
10:53 AM 54.0 °F - 9.0 °F 17% 30.18 in 10.0 mi SSE 3.5 mph - N/A   Clear
11:53 AM 57.0 °F - 7.0 °F 14% 30.13 in 10.0 mi Variable 3.5 mph - N/A   Clear
12:53 PM 60.1 °F - 8.1 °F 13% 30.11 in 10.0 mi Calm Calm - N/A   Clear
1:53 PM 61.0 °F - 9.0 °F 13% 30.12 in 10.0 mi NE 10.4 mph 16.1 mph N/A   Clear
2:53 PM 57.9 °F - 9.0 °F 14% 30.14 in 10.0 mi NE 20.7 mph - N/A   Clear
3:53 PM 54.0 °F - 12.9 °F 20% 30.17 in 10.0 mi ENE 17.3 mph - N/A   Clear
4:53 PM 48.0 °F - 14.0 °F 26% 30.22 in 10.0 mi ESE 8.1 mph - N/A   Clear
5:53 PM 41.0 °F 38.0 °F 12.0 °F 31% 30.28 in 10.0 mi East 4.6 mph - N/A   Clear
6:53 PM 34.0 °F 29.8 °F 10.0 °F 37% 30.33 in 10.0 mi NNE 4.6 mph - N/A   Clear
7:53 PM 33.1 °F - 12.0 °F 42% 30.35 in 10.0 mi Calm Calm - N/A   Clear
8:53 PM 28.9 °F - 10.0 °F 45% 30.36 in 10.0 mi Calm Calm - N/A   Clear
9:53 PM 28.0 °F - 10.0 °F 47% 30.33 in 10.0 mi Calm Calm - N/A   Clear
10:53 PM 27.0 °F - 10.9 °F 51% 30.31 in 10.0 mi Calm Calm - N/A   Clear
11:53 PM 23.0 °F - 8.1 °F 53% 30.31 in 10.0 mi Calm Calm - N/A   Clear